Tracking 30918 objects as of 2-Jul-2025
HD Live streaming from Space Station
objects crossing your sky now

ESSA 9 (TOS-G)

Track ESSA 9 (TOS-G) now!
10-day predictions
ESSA 9 (TOS-G) is classified as:


NORAD ID: 3764
Int'l Code: 1969-016A
Perigee: 1,431.8 km
Apogee: 1,512.7 km
Inclination: 101.4 °
Period: 115.2 minutes
Semi major axis: 7843 km
RCS: 0.8603 m2 (medium)
Launch date: February 26, 1969
Source: United States (US)
Launch site: AIR FORCE EASTERN TEST RANGE (AFETR)
Your satellite tracking list
OPS 4682 (SNAPSHOT)
Track 1 satellite(s)




NASA's NSSDC Master Catalog

Two Line Element Set (TLE):
1  3764U 69016A   25182.88868792 -.00000046  00000-0 -26992-4 0  9990
2  3764 101.3979 193.7701 0051583  73.8183 351.7341 12.49856888944507
Source of the keplerian elements: AFSPC